Location: Unspecified
(45.3712°N, 0.6436°E)
Time: 14:22:54
(UTC+01:00)

ISS - Visible Passes

Search period start: 25 February 2018 00:00
Search period end: 07 March 2018 00:00
Orbit: 402 x 407 km, 51.6° (Epoch: 25 February)

Date Brightness Start Highest point End Pass type
(mag) Time Alt. Az. Time Alt. Az. Time Alt. Az.
26 Feb -0.7 06:23:52 10° SSE 06:25:03 12° SE 06:26:13 10° ESE visible
27 Feb -2.6 07:05:41 10° SW 07:08:48 43° SE 07:11:57 10° ENE visible
28 Feb -1.7 06:13:56 10° SSW 06:16:40 25° SE 06:19:25 10° E visible
01 Mar -1.1 05:24:04 14° SE 05:24:36 14° SE 05:26:25 10° E visible
01 Mar -3.8 06:57:22 10° WSW 07:00:39 89° NNW 07:03:56 10° ENE visible
02 Mar -3.2 06:06:53 27° SSW 06:08:23 53° SE 06:11:36 10° ENE visible
03 Mar -1.9 05:16:53 27° ESE 05:16:53 27° ESE 05:19:06 10° ENE visible
03 Mar -3.4 06:49:33 11° W 06:52:34 49° NNW 06:55:46 10° NE visible
04 Mar -3.9 05:59:26 49° W 06:00:11 76° NNW 06:03:28 10° ENE visible
05 Mar -1.9 05:09:14 31° ENE 05:09:14 31° ENE 05:11:06 10° ENE visible
05 Mar -2.7 06:41:53 13° WNW 06:44:30 33° NNW 06:47:32 10° NE visible
06 Mar -3.3 05:51:36 41° NW 05:52:02 43° NNW 05:55:12 10° NE visible
